Wind_Speed
2 2 2 2 2 3 3 4 4 4 4 4 4 5 6 7 7 7 8 10 10 10 10 11 13 14 14 14 15 16 17 18 19 20 20 21 22 24
2 2 2 2 3 3 4 5 5 5 5 5 6 6 6 6 7 8 9 10 11 11 12 12 13 14 15 16 17 17 18 18 19 20 21 22 23 23
3 3 3 4 4 4 5 6 6 6 6 7 7 7 8 8 8 9 10 10 11 12 13 14 15 16 16 17 18 19 20 20 21 22 22 23 24 25
5 5 5 6 6 6 6 7 7 8 8 8 9 9 9 10 10 10 11 12 12 13 14 15 16 17 18 19 20 21 22 23 24 24 24 25 26 26
6 7 7 7 8 8 8 9 9 9 9 9 10 10 11 12 13 13 13 13 14 15 16 17 17 18 20 21 21 22 23 24 25 26 26 26 27 27
7 8 8 9 9 10 10 11 11 11 11 11 12 12 13 14 14 15 15 15 16 17 17 18 20 21 22 22 23 24 25 26 27 27 28 29 29 29
9 9 10 10 11 12 12 12 13 13 13 14 14 15 15 16 17 17 18 18 18 19 20 20 21 22 23 24 25 26 27 28 28 29 30 31 32 32
11 11 12 13 13 14 14 14 15 15 16 16 16 17 18 19 19 20 20 20 20 21 21 22 23 24 25 26 27 28 29 30 31 31 32 33 34 35
12 13 13 14 15 15 16 16 17 17 18 19 19 19 20 21 21 21 22 22 22 23 24 24 25 26 26 27 28 29 31 31 32 33 34 35 36 37
15 15 16 16 17 18 19 19 20 20 21 21 22 23 23 23 23 24 24 25 25 26 26 27 27 27 28 29 30 31 32 33 34 35 36 37 38 39
17 18 18 19 20 21 21 22 23 23 24 25 25 26 26 26 26 27 27 27 28 29 29 29 29 30 31 31 32 33 34 35 36 38 38 39 40 41
20 21 21 22 23 23 24 25 25 26 27 27 28 28 28 28 29 29 30 30 31 31 32 32 33 33 32 33 34 35 36 37 38 40 41 42 42 43
22 23 24 25 25 26 27 27 28 29 29 30 30 30 30 31 31 32 33 33 33 34 34 35 35 35 35 35 36 38 39 40 41 42 43 44 44 45
24 25 26 27 28 28 29 30 30 31 32 32 32 32 33 33 34 34 35 36 36 37 37 37 37 37 38 38 39 39 41 42 43 44 45 47 48 49
27 27 29 29 30 31 32 33 33 34 34 34 35 35 35 36 36 37 38 38 38 39 39 40 40 41 41 42 42 42 43 44 45 47 48 49 50 51
29 30 31 32 32 33 34 35 36 36 37 37 37 37 38 39 39 40 40 40 40 41 41 42 43 44 44 45 45 46 47 48 49 50 50 51 51 52
32 32 33 34 35 35 36 37 37 38 38 38 39 39 40 41 42 42 42 42 42 43 43 44 45 46 47 47 48 49 50 51 51 52 52 52 52 53
34 34 35 36 37 37 38 38 39 39 39 40 41 42 42 43 44 44 44 45 45 46 46 46 47 48 49 49 50 51 52 52 53 54 54 54 53 54
36 37 37 38 38 39 39 40 41 41 42 42 43 44 44 45 46 46 46 46 47 48 48 49 49 50 51 51 51 53 54 54 55 55 56 56 55 54
38 38 39 40 40 41 42 43 43 44 44 44 45 46 47 48 48 48 48 48 48 49 50 50 51 51 52 53 53 53 55 56 56 56 56 56 56 56
40 40 41 42 43 44 45 45 46 46 46 47 47 48 49 50 50 50 50 50 51 51 51 51 52 53 54 54 54 53 54 55 56 56 56 56 55 55
42 43 44 45 46 46 47 48 48 48 49 49 50 51 51 51 52 52 52 52 52 52 52 52 52 53 54 55 55 55 54 53 54 55 55 56 56 56
44 44 45 47 48 49 49 49 49 50 51 52 53 53 53 52 52 53 53 53 53 53 53 53 53 54 55 55 55 55 54 53 53 54 55 56 57 56
Wind_Direction
25 30 30 23 10 355 349 347 340 327 314 302 292 287 284 282 283 280 278 276 272 269 263 255 249 240 240 240 240 240 241 242 242 240 242 245 246 246
339 342 338 332 333 334 334 336 335 328 317 306 303 299 293 288 286 284 280 277 273 270 265 261 257 251 247 248 247 246 245 246 247 247 247 249 250 252
314 316 319 319 318 319 322 323 322 320 319 310 306 303 301 298 292 286 279 278 278 271 266 264 261 257 255 253 254 253 251 250 252 253 253 254 255 255
304 302 303 305 305 308 309 312 312 313 314 310 303 300 300 299 297 293 288 283 280 277 271 267 265 263 263 259 258 258 258 258 257 257 257 259 259 259
301 300 299 299 302 301 300 302 304 307 309 308 305 299 297 297 297 296 293 288 284 279 275 273 271 269 269 267 265 263 262 261 261 261 262 262 263 263
296 297 299 298 298 299 299 298 301 303 304 305 304 300 297 295 295 295 293 291 288 283 279 276 274 273 271 269 268 267 266 264 264 263 264 265 265 266
294 296 299 300 299 298 300 301 301 302 302 302 303 301 299 298 296 294 293 291 290 285 282 278 276 275 273 272 271 270 269 268 267 266 265 265 265 266
294 296 298 299 299 298 299 299 300 300 300 301 300 301 299 297 295 293 291 289 288 286 284 282 279 278 277 276 274 273 273 271 270 269 268 268 267 267
290 294 298 300 301 299 299 300 300 300 299 298 296 297 298 296 294 292 291 290 288 287 286 285 283 282 280 279 278 276 275 274 272 271 270 270 270 269
288 291 295 298 299 299 298 297 297 297 297 297 296 295 295 294 293 292 291 290 289 289 288 286 284 283 282 281 279 277 276 276 275 274 274 273 272 272
287 289 292 295 297 298 297 296 295 295 296 297 297 296 294 293 292 291 291 290 289 289 288 286 285 284 284 283 282 281 279 278 277 277 276 276 275 274
285 288 290 293 295 296 296 295 294 294 295 296 296 294 293 292 292 291 290 290 290 289 288 287 286 284 282 282 282 282 281 281 280 280 279 278 278 276
285 288 291 292 294 295 296 296 295 295 294 295 295 294 293 293 293 292 291 291 290 289 288 287 286 284 283 282 282 282 282 282 282 281 281 280 279 278
284 287 289 292 294 295 296 296 296 296 295 295 295 294 294 294 294 294 293 292 291 289 288 287 286 285 284 283 283 282 282 283 282 282 282 281 281 280
284 287 289 291 293 295 296 296 296 296 296 295 294 293 294 294 294 294 293 292 289 288 288 287 287 286 286 285 284 283 283 284 284 284 283 283 282 281
285 287 289 291 292 293 295 296 296 296 295 294 293 293 293 293 293 294 294 292 290 288 288 287 287 287 287 286 285 285 285 285 285 285 285 284 283 282
286 287 289 290 292 293 294 295 295 295 295 294 294 293 293 293 293 294 294 293 291 290 288 288 288 287 287 286 286 286 287 287 286 286 285 285 285 284
286 288 289 290 291 292 294 294 295 295 295 295 295 294 294 294 294 294 293 293 292 291 290 289 289 288 288 288 288 288 287 287 287 286 286 285 285 284
287 288 289 290 291 292 294 295 295 295 295 295 295 294 294 294 295 294 294 294 294 293 292 291 290 289 288 289 289 289 289 289 288 287 287 287 287 286
287 288 289 290 292 293 294 294 295 294 294 294 295 294 294 295 295 294 294 294 294 294 293 292 291 290 290 290 291 291 291 291 290 289 289 288 288 287
287 288 289 291 292 293 294 294 294 294 294 294 295 295 295 295 295 294 294 294 294 294 293 293 293 292 291 292 292 292 291 291 291 291 290 289 289 288
287 288 290 291 292 293 294 294 294 294 294 295 295 295 295 295 295 294 294 294 294 294 294 294 293 293 293 292 292 292 291 290 290 291 291 291 291 290
287 289 290 291 292 293 293 293 293 293 294 295 295 295 295 295 295 295 295 295 294 294 294 293 293 293 293 293 292 292 291 290 289 289 290 291 291 290
Height
5862 5862 5862 5861 5861 5860 5860 5859 5859 5858 5857 5856 5856 5855 5855 5855 5854 5854 5853 5853 5852 5851 5851 5850 5851 5851 5852 5853 5854 5855 5856 5857 5858 5860 5861 5863 5864 5865
5862 5862 5861 5861 5860 5860 5859 5858 5858 5857 5856 5855 5854 5854 5853 5852 5852 5851 5851 5850 5850 5849 5848 5848 5848 5849 5850 5850 5851 5852 5853 5854 5855 5856 5857 5858 5859 5860
5861 5861 5860 5860 5859 5859 5858 5857 5856 5855 5855 5854 5852 5852 5851 5850 5850 5849 5848 5847 5847 5846 5846 5845 5846 5846 5846 5847 5847 5848 5848 5849 5850 5851 5852 5853 5854 5855
5860 5859 5859 5858 5858 5857 5856 5855 5855 5854 5853 5852 5850 5849 5849 5848 5847 5846 5845 5844 5843 5843 5842 5842 5842 5842 5842 5842 5843 5843 5844 5844 5845 5845 5846 5847 5847 5848
5858 5857 5857 5856 5855 5855 5854 5853 5852 5851 5850 5849 5848 5847 5846 5845 5843 5842 5841 5840 5840 5839 5838 5838 5838 5837 5837 5837 5837 5837 5838 5838 5839 5839 5839 5840 5841 5841
5856 5855 5854 5854 5853 5852 5851 5850 5849 5848 5847 5846 5845 5844 5843 5841 5840 5839 5838 5836 5835 5834 5834 5833 5832 5832 5831 5831 5831 5831 5831 5831 5831 5831 5832 5832 5833 5833
5853 5853 5852 5851 5850 5849 5848 5847 5846 5845 5844 5843 5841 5840 5839 5837 5836 5834 5833 5832 5830 5829 5828 5827 5826 5826 5825 5824 5824 5823 5823 5823 5823 5823 5823 5823 5823 5824
5851 5850 5849 5848 5846 5845 5844 5843 5842 5841 5840 5839 5837 5836 5834 5833 5831 5829 5828 5826 5825 5824 5822 5821 5820 5819 5818 5817 5816 5815 5814 5814 5813 5813 5813 5813 5813 5813
5848 5847 5846 5844 5843 5842 5840 5839 5838 5837 5835 5834 5832 5831 5829 5828 5826 5824 5822 5820 5818 5817 5816 5814 5812 5811 5809 5808 5807 5806 5805 5804 5803 5803 5803 5802 5802 5802
5844 5843 5842 5840 5839 5837 5836 5835 5833 5831 5830 5828 5827 5825 5823 5821 5819 5817 5815 5814 5812 5810 5808 5806 5804 5803 5801 5799 5797 5796 5795 5794 5793 5792 5791 5790 5790 5790
5839 5838 5837 5835 5834 5832 5831 5829 5827 5825 5823 5821 5819 5817 5815 5813 5811 5810 5808 5806 5804 5802 5799 5798 5796 5794 5793 5791 5788 5786 5785 5783 5782 5781 5779 5778 5777 5777
5834 5833 5831 5830 5828 5826 5824 5822 5821 5819 5817 5814 5812 5809 5807 5805 5803 5801 5799 5797 5795 5793 5790 5788 5786 5784 5783 5782 5779 5776 5774 5772 5771 5769 5767 5766 5764 5763
5828 5826 5825 5823 5821 5819 5817 5815 5813 5810 5808 5806 5803 5801 5798 5796 5793 5791 5789 5786 5784 5782 5779 5777 5775 5773 5771 5771 5768 5765 5763 5760 5758 5756 5755 5753 5751 5749
5821 5819 5818 5816 5814 5811 5809 5807 5804 5802 5799 5797 5794 5792 5789 5787 5784 5781 5778 5775 5772 5770 5767 5765 5763 5761 5759 5758 5756 5754 5751 5748 5745 5743 5741 5739 5736 5734
5813 5812 5810 5808 5805 5803 5800 5798 5795 5792 5789 5786 5784 5781 5779 5776 5773 5770 5767 5763 5760 5757 5754 5752 5750 5748 5746 5744 5742 5740 5738 5735 5731 5729 5726 5723 5720 5717
5805 5803 5801 5799 5796 5794 5791 5788 5785 5781 5778 5776 5773 5770 5767 5764 5761 5757 5754 5750 5747 5744 5741 5738 5736 5734 5732 5729 5727 5724 5722 5719 5716 5713 5710 5707 5703 5700
5795 5794 5792 5789 5787 5784 5781 5778 5774 5771 5767 5764 5761 5758 5755 5752 5748 5744 5741 5737 5734 5731 5728 5725 5721 5719 5716 5713 5711 5708 5704 5702 5698 5695 5692 5690 5687 5682
5786 5784 5781 5779 5776 5773 5770 5767 5763 5760 5756 5753 5750 5746 5743 5739 5735 5732 5728 5724 5720 5717 5714 5711 5707 5704 5701 5698 5694 5690 5687 5684 5680 5676 5673 5670 5669 5665
5775 5773 5771 5768 5765 5762 5759 5755 5752 5748 5745 5741 5738 5734 5730 5726 5722 5718 5714 5710 5706 5703 5699 5695 5691 5688 5686 5684 5681 5674 5669 5666 5662 5659 5655 5651 5649 5647
5764 5762 5759 5757 5754 5750 5747 5744 5740 5736 5732 5729 5725 5721 5717 5713 5709 5705 5700 5696 5692 5688 5684 5680 5675 5671 5668 5666 5664 5660 5652 5647 5643 5640 5637 5633 5630 5627
5753 5750 5748 5745 5742 5738 5735 5731 5727 5723 5720 5716 5711 5707 5703 5699 5694 5690 5686 5681 5677 5673 5669 5665 5660 5655 5651 5648 5645 5643 5637 5630 5624 5620 5617 5614 5611 5609
5741 5738 5735 5732 5729 5725 5721 5717 5713 5710 5706 5702 5697 5693 5689 5684 5679 5675 5670 5666 5661 5657 5653 5649 5644 5639 5635 5631 5627 5624 5620 5615 5609 5603 5598 5594 5589 5587
5728 5725 5722 5718 5715 5711 5707 5703 5699 5695 5691 5687 5683 5678 5673 5669 5664 5660 5655 5651 5646 5641 5637 5633 5629 5624 5619 5614 5610 5606 5602 5598 5594 5589 5585 5578 5572 5568